Home > Weather > Cheltenham > Past weeks

Flag for United Kingdom Weather for the Past 2 Weeks in Cheltenham, England, United Kingdom

Now
35 °F

Chilly.


Feels Like: 33 °F
Forecast: 31 / 41 °F
Wind: 3 mph from Northeast

Location: Pershore

Current Time: Feb 14, 2016 at 4:49:11 AM

Latest Report: Feb 14, 2016 at 3:00 AM


Visibility: 7 mi

Pressure: 29.23 "Hg

Humidity: 89%

Dew point: 33 °F

Location of CheltenhamLocation

Historic Weather in Cheltenham — Graph

°F

Cheltenham Temperature Yesterday

Maximum temperature yesterday: 41 °F (at 3:00 PM)
Minimum temperature yesterday: 36 °F (at 8:00 PM)
Average temperature yesterday: 38 °F

High & Low Weather Summary for the Past Weeks

 TemperatureHumidityPressure
High58 °F (Feb 1, 1:00 PM)98% (Feb 6, 7:00 AM)30.30 "Hg (Feb 6, 7:00 AM)
Low24 °F (Feb 11, 7:00 AM)56% (Jan 30, 1:00 PM)28.88 "Hg (Feb 8, 9:00 AM)
Average45 °F81%29.59 "Hg
* Reported Jan 30 1:00 AM — Midnight between Feb 13 and Feb 14, Cheltenham, Weather by CustomWeather, © 2016

Note: Actual official high and low records may vary slightly from our data, if they occured in-between our weather recording intervals... More about our weather records

Advertising

Cheltenham Weather History for the Previous 24 Hours

 ConditionsComfort  
Time TempWeatherWind HumidityBarometerVisibility
12:00 AM
Sun, Feb 14
37 °FChilly.6 mph88%29.23 "Hg7 mi
11:00 PM
Sat, Feb 13
36 °FSmoke.5 mph90%29.21 "Hg6 mi
8:00 PM36 °FSmoke.3 mph94%29.21 "Hg4 mi
7:00 PM37 °FChilly.3 mph92%29.21 "Hg2 mi
6:00 PM38 °FLight rain. Overcast.7 mph89%29.18 "Hg6 mi
5:00 PM39 °FLight rain. Cloudy.5 mph89%29.18 "Hg5 mi
4:00 PM40 °FRain showers. Cloudy.8 mph83%29.15 "Hg6 mi
3:00 PM41 °FQuite cool.9 mph78%29.12 "Hg10 mi
2:00 PM40 °FRain showers. Cloudy.10 mph81%29.12 "Hg7 mi
1:00 PM40 °FRain showers. Cloudy.8 mph84%29.12 "Hg8 mi
12:00 PM39 °FChilly.9 mph86%29.12 "Hg4 mi
11:00 AM38 °FRain showers. Cloudy.12 mph86%29.12 "Hg5 mi
10:00 AM38 °FChilly.13 mph82%29.12 "Hg6 mi
9:00 AM37 °FSmoke.12 mph84%29.12 "Hg7 mi
8:00 AM37 °FChilly.13 mph83%29.12 "Hg7 mi
7:00 AM37 °FChilly.12 mph82%29.15 "Hg9 mi
6:00 AM38 °FChilly.9 mph83%29.18 "Hg7 mi
5:00 AM38 °FSmoke.10 mph87%29.21 "Hg6 mi
4:00 AM37 °FSmoke.8 mph89%29.23 "Hg5 mi
Weather by CustomWeather, © 2016

See weather overviewHow to use our weather pages